[[{"header":{"parameterUnit":"m.s-1","parameterCategory":2,"la1":30.2992,"la2":30.254,"lo1":-89.0895,"lo2":-89.0443,"dy":0.0025,"dx":0.0025,"nx":19,"ny":19,"refTime":"2026-03-18T21:00:00:Z","depth":"0","parameterNumber":2,"parameterNumberName":"U-component_of_CURRENTS"},"data":[0,0,0,-0.0736,-0.0738,-0.0824,-0.0824,-0.0842,-0.0841,0,0,0,0,0,0,0,0,0,0,0,-0.0692,-0.0692,-0.0736,-0.0738,-0.0824,-0.0824,-0.0842,-0.0841,0,0,0,0,0,0,0,0,0,0,0,-0.0692,-0.0692,-0.0693,-0.0738,-0.0824,-0.0824,-0.0842,-0.0799,0,0,0,0,0,0,0,0,0,0,-0.0727,-0.0678,-0.0692,-0.0693,-0.0739,-0.0824,-0.0824,-0.0798,-0.0802,-0.0777,0,-0.0784,0,-0.0817,-0.0841,-0.0841,0,0,0,-0.0737,-0.0675,-0.0723,-0.0693,-0.074,-0.0823,-0.0785,-0.0801,-0.0805,-0.0781,-0.0784,-0.0786,-0.0818,-0.0841,-0.0841,-0.055,-0.0547,0,0,-0.0732,-0.0684,-0.0721,-0.0725,-0.0752,-0.0782,-0.0787,-0.0805,-0.0787,-0.0785,-0.0788,-0.0818,-0.084,-0.084,-0.0553,-0.0549,0,0,0,-0.0719,-0.068,-0.0729,-0.0723,-0.0749,-0.0784,-0.0791,-0.0786,-0.0809,-0.0788,-0.0818,-0.084,-0.084,-0.0556,-0.0552,-0.05,0,0,0,-0.0716,-0.0674,-0.0727,-0.0696,-0.0749,-0.0776,-0.0771,-0.0808,-0.0812,-0.0818,-0.084,-0.084,-0.056,-0.0554,-0.0509,-0.0543,0,0,0,-0.069,-0.0671,-0.0684,-0.0694,-0.0737,-0.0778,-0.0801,-0.081,-0.0829,-0.0841,-0.084,-0.0562,-0.0555,-0.0517,-0.0553,-0.0542,0,0,0,-0.0635,-0.0604,-0.0682,-0.065,-0.0736,-0.0703,-0.0802,-0.0777,-0.0772,-0.084,-0.0559,-0.0552,-0.052,-0.0559,-0.0547,-0.0589,-0.0569,0,0,-0.0563,-0.0594,-0.0578,-0.065,-0.0624,-0.0692,-0.059,-0.0642,-0.0639,-0.0557,-0.0551,-0.0506,-0.0554,-0.0543,-0.0163,-0.0159,0,0,0,-0.0534,-0.0533,-0.0531,-0.0545,-0.0548,-0.0527,-0.0547,-0.0514,-0.0429,-0.0605,-0.037,-0.04,-0.0398,-0.0426,-0.0418,-0.0576,-0.0518,-0.0519,-0.052,-0.0383,-0.0431,-0.04,-0.044,-0.041,-0.0383,-0.034,-0.0273,-0.0292,-0.0186,-0.0255,-0.0075,-0.0091,-0.0089,-0.0246,-0.0104,-0.0104,-0.0104,-0.0104,-0.0305,-0.0315,-0.0337,-0.0336,-0.0315,-0.0235,-0.0144,-0.013,-0.0031,-0.0039,-0.0039,-0.024,-0.008,-0.0249,-0.0098,-0.0099,-0.01,-0.01,-0.0101,-0.0254,-0.0267,-0.0276,-0.0277,-0.0226,-0.0181,-0.0119,-0.0055,-0.0001,0.002,-0.004,-0.0042,-0.0295,0.002,0.002,0.002,0.002,0.002,0.002,-0.0212,-0.0222,-0.0228,-0.0228,-0.0215,-0.0176,-0.011,-0.0076,-0.003,0.0006,0.0006,-0.0202,-0.0039,-0.0164,0.002,0.002,0.002,0.002,0.002,-0.0206,-0.0206,-0.0214,-0.0211,-0.0186,-0.0156,-0.0122,-0.0096,-0.0064,-0.0053,-0.0192,0.0002,-0.0048,-0.0052,-0.0172,-0.0003,-0.0003,-0.0003,-0.0003,-0.0195,-0.0199,-0.0204,-0.0194,-0.0166,-0.014,-0.0144,-0.0141,-0.0202,-0.024,-0.0288,-0.032,-0.0312,-0.0381,-0.0378,-0.0505,-0.0424,-0.0424,-0.0425,-0.0197,-0.0196,-0.0196,-0.0186,-0.0154,-0.0129,-0.0155,-0.0243,-0.0346,-0.0459,-0.0497,-0.0479,-0.0543,-0.0518,-0.0638,-0.0621,-0.0833,0,0]},{"header":{"parameterUnit":"m.s-1","parameterCategory":2,"la1":30.2992,"la2":30.254,"lo1":-89.0895,"lo2":-89.0443,"dy":0.0025,"dx":0.0025,"nx":19,"ny":19,"refTime":"2026-03-18T21:00:00:Z","depth":"0","parameterNumber":3,"parameterNumberName":"V-component_of_CURRENTS"},"data":[0,0,0,-0.0782,-0.0777,-0.0484,-0.0482,-0.0157,-0.0155,0,0,0,0,0,0,0,0,0,0,0,-0.0862,-0.086,-0.0783,-0.0776,-0.0484,-0.0482,-0.0158,-0.0155,0,0,0,0,0,0,0,0,0,0,0,-0.0863,-0.0861,-0.0858,-0.0775,-0.0484,-0.0482,-0.0158,-0.0361,0,0,0,0,0,0,0,0,0,0,-0.0637,-0.0715,-0.0861,-0.0858,-0.0774,-0.0484,-0.0482,-0.037,-0.0348,-0.0312,0,-0.0256,0,-0.0217,-0.0136,-0.0135,0,0,0,-0.0752,-0.0733,-0.0659,-0.0858,-0.0771,-0.0485,-0.0609,-0.0357,-0.0333,-0.0283,-0.0252,-0.0239,-0.0212,-0.0135,-0.0133,0.0172,0.0173,0,0,-0.0768,-0.0804,-0.0675,-0.0643,-0.0682,-0.0618,-0.06,-0.0342,-0.031,-0.025,-0.0232,-0.0206,-0.0133,-0.0131,0.0171,0.0173,0,0,0,-0.0831,-0.0816,-0.0745,-0.0657,-0.0609,-0.0611,-0.0589,-0.0321,-0.0298,-0.0228,-0.0203,-0.0131,-0.0128,0.017,0.0172,0.0141,0,0,0,-0.0839,-0.0854,-0.0753,-0.0771,-0.0614,-0.0457,-0.0575,-0.0315,-0.0285,-0.0204,-0.0131,-0.0125,0.0168,0.0171,0.0139,0.0074,0,0,0,-0.0878,-0.0859,-0.0822,-0.0773,-0.066,-0.046,-0.042,-0.0307,-0.0271,-0.0135,-0.0124,0.0167,0.017,0.0137,0.0074,0.0045,0,0,0,-0.093,-0.083,-0.0822,-0.0664,-0.0663,-0.0414,-0.0421,-0.0226,-0.0098,-0.013,0.0168,0.0171,0.0136,0.0073,0.0045,0.0031,0.0029,0,0,-0.0834,-0.0819,-0.0716,-0.0701,-0.0482,-0.0454,-0.0241,-0.0099,-0.0048,0.008,0.0089,0.0139,0.0074,0.0045,0.0208,0.02,0,0,0,-0.0702,-0.0654,-0.0567,-0.044,-0.0277,-0.0205,-0.0056,-0.0017,0.0099,0.0035,0.0211,0.0171,0.0152,0.0148,0.0144,0.0246,0.0186,0.0185,0.0185,-0.0727,-0.0597,-0.0444,-0.0293,-0.0156,-0.0004,0.0056,0.0123,0.0201,0.0235,0.0201,0.0227,0.023,0.0224,0.0334,0.0292,0.0292,0.0292,0.0292,-0.0657,-0.0579,-0.0432,-0.026,-0.0155,-0.0014,0.0122,0.0153,0.0207,0.0251,0.0236,0.0185,0.0216,0.0336,0.0291,0.0291,0.0291,0.0292,0.0292,-0.074,-0.0681,-0.0573,-0.0376,-0.0253,-0.0086,-0.0031,0.0072,0.0145,0.0142,0.0149,0.015,0.0199,0.0153,0.0153,0.0152,0.0152,0.0152,0.0151,-0.0892,-0.0764,-0.0679,-0.0491,-0.0404,-0.0285,-0.0126,-0.0075,0.0028,0.0092,0.0093,0.0248,0.0184,0.0125,0.0146,0.0147,0.0148,0.0148,0.0148,-0.0938,-0.0918,-0.0798,-0.0709,-0.0505,-0.0434,-0.0294,-0.0176,-0.0117,-0.008,0.0171,0.0073,0.0063,0.007,0.0011,0.0,0.0,-0.0,-0.0,-0.1025,-0.0985,-0.0859,-0.0748,-0.0628,-0.0489,-0.0442,-0.0299,-0.0042,0.009,0.0171,0.0242,0.0243,0.0249,0.0251,0.0199,0.0236,0.0237,0.0237,-0.1047,-0.1007,-0.0944,-0.0809,-0.0662,-0.0561,-0.0517,-0.0418,-0.0026,0.026,0.0319,0.0308,0.0429,0.0422,0.0445,0.0439,0.0359,0,0]}],[{"header":{"parameterUnit":"m.s-1","parameterCategory":2,"la1":30.2992,"la2":30.254,"lo1":-89.0895,"lo2":-89.0443,"dy":0.0025,"dx":0.0025,"nx":19,"ny":19,"refTime":"2026-03-18T21:00:00:Z","depth":"2","parameterNumber":2,"parameterNumberName":"U-component_of_CURRENTS"},"data":[0,0,0,-0.0834,-0.0835,-0.086,-0.086,-0.0831,-0.0831,0,0,0,0,0,0,0,0,0,0,0,-0.081,-0.081,-0.0834,-0.0835,-0.086,-0.086,-0.0831,-0.0831,0,0,0,0,0,0,0,0,0,0,0,-0.081,-0.081,-0.0809,-0.0835,-0.086,-0.086,-0.0832,-0.0827,0,0,0,0,0,0,0,0,0,0,-0.0811,-0.079,-0.081,-0.0809,-0.0835,-0.086,-0.086,-0.0828,-0.0827,-0.0804,0,-0.0798,0,-0.082,-0.0828,-0.0828,0,0,0,-0.0833,-0.079,-0.0807,-0.0809,-0.0836,-0.086,-0.0848,-0.0828,-0.0828,-0.0803,-0.0798,-0.0798,-0.082,-0.0828,-0.0827,-0.0646,-0.0644,0,0,-0.0831,-0.0806,-0.0807,-0.0806,-0.0828,-0.0847,-0.0849,-0.0829,-0.0814,-0.0798,-0.0798,-0.0819,-0.0827,-0.0827,-0.0647,-0.0645,0,0,0,-0.0829,-0.0805,-0.0823,-0.0806,-0.0819,-0.0848,-0.085,-0.0815,-0.0824,-0.0798,-0.0819,-0.0827,-0.0826,-0.0649,-0.0646,-0.0648,0,0,0,-0.0828,-0.0804,-0.0822,-0.0806,-0.082,-0.0825,-0.0837,-0.0825,-0.0824,-0.0819,-0.0827,-0.0826,-0.0651,-0.0648,-0.0652,-0.0698,0,0,0,-0.0811,-0.0803,-0.0804,-0.0805,-0.082,-0.0826,-0.0833,-0.0825,-0.0837,-0.0828,-0.0826,-0.0652,-0.0648,-0.0655,-0.0701,-0.0844,0,0,0,-0.0788,-0.077,-0.0802,-0.0768,-0.082,-0.0777,-0.0834,-0.08,-0.0782,-0.0827,-0.0651,-0.0647,-0.0657,-0.0703,-0.0843,-0.1005,-0.1022,0,0,-0.0755,-0.0765,-0.0742,-0.0772,-0.0737,-0.0775,-0.0716,-0.0727,-0.0711,-0.0658,-0.0654,-0.0651,-0.0702,-0.0844,-0.0777,-0.0803,0,0,0,-0.0724,-0.0722,-0.0706,-0.0696,-0.0673,-0.0674,-0.0671,-0.0666,-0.0619,-0.0685,-0.0569,-0.0601,-0.0694,-0.0784,-0.0801,-0.0628,-0.0628,-0.0629,-0.0629,-0.0709,-0.0692,-0.0654,-0.0637,-0.0602,-0.0589,-0.0588,-0.0567,-0.0543,-0.05,-0.054,-0.0565,-0.0649,-0.0667,-0.0444,-0.0444,-0.0444,-0.0444,-0.0444,-0.0689,-0.0654,-0.0637,-0.0594,-0.0571,-0.0518,-0.0507,-0.0508,-0.0538,-0.0463,-0.0554,-0.07,-0.0688,-0.0442,-0.0442,-0.0443,-0.0443,-0.0443,-0.0443,-0.0686,-0.0654,-0.0639,-0.0578,-0.0533,-0.0491,-0.0547,-0.0528,-0.0556,-0.0605,-0.0794,-0.0795,-0.0698,-0.067,-0.0671,-0.0672,-0.0672,-0.0673,-0.0673,-0.066,-0.0642,-0.0605,-0.0555,-0.0513,-0.0512,-0.0576,-0.0681,-0.0825,-0.0836,-0.0838,-0.0644,-0.0637,-0.0711,-0.0685,-0.0683,-0.0681,-0.068,-0.0679,-0.0579,-0.0604,-0.0558,-0.0525,-0.0488,-0.0588,-0.0698,-0.1014,-0.1127,-0.1257,-0.101,-0.0998,-0.1058,-0.1043,-0.1125,-0.1209,-0.1209,-0.1209,-0.1209,-0.0533,-0.054,-0.0496,-0.0463,-0.0499,-0.0605,-0.0941,-0.1111,-0.1227,-0.118,-0.1179,-0.1085,-0.1068,-0.112,-0.1103,-0.1183,-0.1282,-0.1281,-0.1281,-0.0461,-0.0478,-0.0434,-0.0437,-0.0474,-0.0699,-0.1013,-0.1073,-0.1086,-0.1266,-0.1009,-0.1249,-0.1108,-0.1081,-0.1157,-0.1131,-0.1257,0,0]},{"header":{"parameterUnit":"m.s-1","parameterCategory":2,"la1":30.2992,"la2":30.254,"lo1":-89.0895,"lo2":-89.0443,"dy":0.0025,"dx":0.0025,"nx":19,"ny":19,"refTime":"2026-03-18T21:00:00:Z","depth":"2","parameterNumber":3,"parameterNumberName":"V-component_of_CURRENTS"},"data":[0,0,0,0.023,0.0229,0.021,0.021,0.0165,0.0164,0,0,0,0,0,0,0,0,0,0,0,0.0234,0.0234,0.023,0.0229,0.021,0.021,0.0165,0.0164,0,0,0,0,0,0,0,0,0,0,0,0.0234,0.0234,0.0234,0.0229,0.021,0.021,0.0165,0.0184,0,0,0,0,0,0,0,0,0,0,0.0206,0.021,0.0234,0.0234,0.0229,0.021,0.021,0.0185,0.0183,0.0168,0,0.0163,0,0.0163,0.0161,0.016,0,0,0,0.0229,0.0212,0.021,0.0234,0.0229,0.021,0.0218,0.0184,0.0182,0.0165,0.0163,0.0161,0.0162,0.016,0.016,0.0112,0.0112,0,0,0.023,0.0227,0.0212,0.0208,0.0221,0.0219,0.0218,0.0183,0.0176,0.0163,0.016,0.0162,0.016,0.016,0.0112,0.0112,0,0,0,0.0233,0.0227,0.0227,0.021,0.0208,0.0219,0.0217,0.0178,0.0178,0.016,0.0161,0.016,0.0159,0.0112,0.0112,0.0133,0,0,0,0.0234,0.023,0.0227,0.0225,0.0209,0.0195,0.0212,0.0181,0.0177,0.0161,0.016,0.0159,0.0113,0.0112,0.0133,0.014,0,0,0,0.0236,0.023,0.0228,0.0225,0.0217,0.0195,0.0194,0.018,0.0178,0.016,0.0158,0.0113,0.0112,0.0133,0.0139,0.0108,0,0,0,0.0233,0.0218,0.0227,0.0211,0.0218,0.0196,0.0194,0.018,0.0166,0.0159,0.0113,0.0112,0.0133,0.0139,0.0108,0.0201,0.0207,0,0,0.0212,0.0215,0.0206,0.0215,0.0206,0.0199,0.018,0.0168,0.0155,0.0123,0.0122,0.0133,0.0139,0.0108,0.0181,0.0188,0,0,0,0.0199,0.0207,0.0198,0.0202,0.0183,0.0185,0.0168,0.015,0.0135,0.0145,0.012,0.0123,0.0103,0.0159,0.0164,0.0111,0.0111,0.0111,0.0111,0.0193,0.0199,0.0207,0.0218,0.0201,0.0176,0.0155,0.0133,0.0124,0.0119,0.0131,0.0109,0.0171,0.0175,0.0121,0.0121,0.0121,0.0121,0.0121,0.0218,0.0239,0.0252,0.0271,0.026,0.0253,0.0183,0.0164,0.0108,0.012,0.0099,0.0168,0.0182,0.0123,0.0122,0.0122,0.0122,0.0122,0.0122,0.0248,0.0261,0.0289,0.033,0.0346,0.0319,0.0251,0.0196,0.0145,0.0115,0.0162,0.0163,0.0114,0.0111,0.0111,0.0111,0.0111,0.0111,0.0111,0.027,0.0295,0.0344,0.0385,0.0407,0.0377,0.0285,0.0211,0.0186,0.0184,0.0185,0.0105,0.0105,0.0112,0.0109,0.0109,0.011,0.011,0.011,0.0298,0.0311,0.0378,0.041,0.0419,0.0308,0.0255,0.019,0.0159,0.0173,0.0205,0.0204,0.0198,0.0195,0.0203,0.0224,0.0224,0.0224,0.0224,0.0308,0.0323,0.0397,0.0426,0.0371,0.0268,0.006,-0.0073,0.0002,0.005,0.0055,0.0073,0.0076,0.0061,0.0061,0.0066,0.0049,0.0048,0.0047,0.0325,0.0349,0.0391,0.0422,0.0354,0.0158,-0.0106,-0.0237,-0.0041,0.0023,-0.015,0.0246,0.0294,0.0289,0.0285,0.0278,0.0293,0,0]}],[{"header":{"parameterUnit":"m.s-1","parameterCategory":2,"la1":30.2992,"la2":30.254,"lo1":-89.0895,"lo2":-89.0443,"dy":0.0025,"dx":0.0025,"nx":19,"ny":19,"refTime":"2026-03-18T21:00:00:Z","depth":"4","parameterNumber":2,"parameterNumberName":"U-component_of_CURRENTS"},"data":[0,0,0,-0.0871,-0.0873,-0.0943,-0.0943,-0.0991,-0.0991,0,0,0,0,0,0,0,0,0,0,0,-0.0851,-0.0851,-0.0871,-0.0873,-0.0943,-0.0943,-0.0991,-0.0991,0,0,0,0,0,0,0,0,0,0,0,-0.085,-0.0851,-0.0852,-0.0873,-0.0943,-0.0943,-0.0991,-0.0948,0,0,0,0,0,0,0,0,0,0,-0.0885,-0.0875,-0.0851,-0.0852,-0.0874,-0.0943,-0.0943,-0.0946,-0.0951,-0.0948,0,-0.0966,0,-0.0979,-0.0994,-0.0994,0,0,0,-0.0871,-0.0872,-0.0888,-0.0852,-0.0874,-0.0943,-0.0911,-0.0949,-0.0954,-0.0953,-0.0967,-0.0969,-0.098,-0.0994,-0.0994,-0.1097,-0.1098,0,0,-0.0867,-0.0863,-0.0885,-0.0891,-0.0902,-0.0909,-0.0913,-0.0952,-0.0962,-0.0967,-0.0971,-0.098,-0.0994,-0.0994,-0.1097,-0.1098,0,0,0,-0.0857,-0.0861,-0.0877,-0.0889,-0.0905,-0.0911,-0.0916,-0.096,-0.0965,-0.0971,-0.0981,-0.0994,-0.0995,-0.1096,-0.1097,-0.1148,0,0,0,-0.0855,-0.0855,-0.0876,-0.0874,-0.0904,-0.094,-0.0923,-0.0963,-0.0968,-0.0981,-0.0994,-0.0995,-0.1095,-0.1096,-0.1144,-0.1147,0,0,0,-0.0846,-0.0854,-0.0865,-0.0874,-0.0904,-0.0939,-0.0947,-0.0964,-0.0973,-0.0994,-0.0995,-0.1094,-0.1096,-0.1141,-0.1142,-0.1198,0,0,0,-0.0835,-0.085,-0.0865,-0.0885,-0.0904,-0.0951,-0.0947,-0.0992,-0.1014,-0.0995,-0.1095,-0.1097,-0.114,-0.114,-0.1195,-0.0944,0,0,0,-0.0843,-0.0851,-0.0861,-0.0876,-0.0913,-0.0941,-0.1003,-0.1035,-0.1045,-0.1076,-0.1079,-0.1145,-0.1142,-0.1197,-0.1068,0,0,0,0,-0.0855,-0.0864,-0.0878,-0.0906,-0.0944,-0.1008,-0.1042,-0.1072,-0.1137,-0.1069,-0.1173,-0.117,-0.1203,-0.1049,-0.1107,-0.1107,-0.1106,-0.1106,-0.1106,-0.0855,-0.0872,-0.0898,-0.0934,-0.0979,-0.1062,-0.1121,-0.1176,-0.1171,-0.1225,-0.1233,-0.1335,-0.1177,-0.1267,-0.1268,-0.1268,-0.1268,-0.1268,-0.1268,-0.0849,-0.0852,-0.0911,-0.0946,-0.1028,-0.1098,-0.12,-0.1237,-0.133,-0.1305,-0.1336,-0.1139,-0.1274,-0.1273,-0.1272,-0.1271,-0.1271,-0.1271,-0.127,-0.0817,-0.0823,-0.0865,-0.0928,-0.1034,-0.1129,-0.121,-0.13,-0.1367,-0.1417,-0.1267,-0.1376,-0.1347,-0.1445,-0.1446,-0.1446,-0.1446,-0.1447,-0.1447,-0.0757,-0.0797,-0.0824,-0.0912,-0.0972,-0.1073,-0.1221,-0.1261,-0.1355,-0.1293,-0.1437,-0.1394,-0.1389,-0.1359,-0.1451,-0.145,-0.145,-0.1449,-0.1449,-0.0678,-0.0717,-0.0743,-0.0793,-0.0906,-0.097,-0.113,-0.1154,-0.1207,-0.1187,-0.1233,-0.1242,-0.1199,-0.1198,-0.1159,-0.1196,-0.1193,-0.119,0,-0.0623,-0.0643,-0.0671,-0.0709,-0.0761,-0.0897,-0.0894,-0.0965,-0.1051,-0.102,-0.1229,-0.1282,-0.1287,-0.1238,-0.1232,-0.1185,0,0,0,-0.0565,-0.06,-0.0585,-0.0637,-0.0684,-0.0761,-0.0887,-0.0856,-0.1053,-0.0973,-0.1118,-0.1137,-0.1269,-0.1464,-0.1421,-0.1414,-0.1363,0,0]},{"header":{"parameterUnit":"m.s-1","parameterCategory":2,"la1":30.2992,"la2":30.254,"lo1":-89.0895,"lo2":-89.0443,"dy":0.0025,"dx":0.0025,"nx":19,"ny":19,"refTime":"2026-03-18T21:00:00:Z","depth":"4","parameterNumber":3,"parameterNumberName":"V-component_of_CURRENTS"},"data":[0,0,0,0.0153,0.0154,0.0175,0.0175,0.0192,0.0192,0,0,0,0,0,0,0,0,0,0,0,0.0143,0.0143,0.0153,0.0154,0.0175,0.0175,0.0192,0.0192,0,0,0,0,0,0,0,0,0,0,0,0.0143,0.0143,0.0143,0.0154,0.0175,0.0175,0.0192,0.0179,0,0,0,0,0,0,0,0,0,0,0.016,0.0144,0.0143,0.0143,0.0154,0.0175,0.0175,0.0179,0.018,0.0179,0,0.0179,0,0.0186,0.0193,0.0193,0,0,0,0.0156,0.0143,0.0155,0.0143,0.0154,0.0175,0.0166,0.0179,0.0181,0.018,0.0179,0.018,0.0186,0.0193,0.0193,0.0178,0.0178,0,0,0.0155,0.0141,0.0154,0.0156,0.0155,0.0165,0.0167,0.018,0.0176,0.0179,0.018,0.0187,0.0193,0.0193,0.0179,0.0178,0,0,0,0.015,0.014,0.0152,0.0155,0.016,0.0166,0.0168,0.0175,0.0181,0.0181,0.0187,0.0193,0.0193,0.0179,0.0178,0.0146,0,0,0,0.0149,0.0138,0.0152,0.0143,0.016,0.0168,0.0162,0.018,0.0182,0.0187,0.0193,0.0193,0.0179,0.0179,0.0147,0.0098,0,0,0,0.0142,0.0137,0.0139,0.0143,0.0152,0.0168,0.0174,0.0181,0.0186,0.0193,0.0194,0.0179,0.0179,0.0149,0.0102,0.0081,0,0,0,0.0128,0.0103,0.0139,0.0101,0.0152,0.0128,0.0175,0.0155,0.0153,0.0193,0.0179,0.0178,0.0149,0.0104,0.0083,0.0006,0,0,0,0.0084,0.0097,0.0071,0.0103,0.0061,0.0125,0.01,0.0121,0.0149,0.0175,0.0175,0.0147,0.0102,0.0081,-0.0026,0,0,0,0,0.0047,0.0034,0.0022,0.0011,0.0014,0.0032,0.007,0.0102,0.0132,0.0148,0.0144,0.0116,0.0105,0.0066,0.0176,0.0176,0.0176,0.0176,0.0176,-0.001,-0.0017,-0.0065,-0.0064,-0.0071,-0.003,-0.0008,0.0047,0.0087,0.0102,0.009,0.0045,0.0004,0.0108,0.0108,0.0108,0.0108,0.0108,0.0108,-0.0086,-0.0119,-0.0121,-0.0167,-0.0141,-0.0142,-0.007,-0.0023,0.002,0.0062,0.0054,0.0034,0.0104,0.0105,0.0105,0.0106,0.0106,0.0106,0.0106,-0.0124,-0.0144,-0.0167,-0.0224,-0.0243,-0.0208,-0.0214,-0.0134,-0.0046,-0.0045,-0.0081,0.001,0.0013,-0.0043,-0.0043,-0.0044,-0.0044,-0.0044,-0.0044,-0.0154,-0.0181,-0.024,-0.0287,-0.0322,-0.0339,-0.03,-0.0281,-0.0196,-0.016,-0.0069,-0.0006,-0.0001,0.0004,-0.0049,-0.0048,-0.0048,-0.0047,-0.0047,-0.0217,-0.0217,-0.0307,-0.0356,-0.044,-0.0448,-0.0424,-0.0397,-0.0381,-0.0352,-0.0206,-0.0196,-0.0199,-0.0189,-0.019,-0.0303,-0.0304,-0.0305,0,-0.0248,-0.0259,-0.0374,-0.0459,-0.0529,-0.0514,-0.0535,-0.0511,-0.0411,-0.0389,-0.0352,-0.0186,-0.0179,-0.0179,-0.0173,-0.0174,0,0,0,-0.0295,-0.0319,-0.0406,-0.0486,-0.0568,-0.0555,-0.0536,-0.0531,-0.0411,-0.0459,-0.0336,-0.0328,-0.0229,-0.0063,-0.0045,-0.0039,-0.003,0,0]}]]